Home   Weather   Qaanaaq   Past weeks

Flag for Greenland Past Weather in Qaanaaq, Greenland — Yesterday and Last 2 Weeks

Now
-17 °F

Sunny.


Feels Like: -37 °F
Forecast: N/A
Wind: 10 mph from Southeast

Location: Thule A. B.

Current Time: Jan 20, 2017 at 7:34:32 pm

Latest Report: Jan 20, 2017 at 6:58 pm


Visibility: N/A

Pressure: 29.69 "Hg

Humidity: 63%

Dew Point: -26 °F

Location of QaanaaqLocation

Past Weather in Qaanaaq — Graph

°F

Qaanaaq Temperature Yesterday

Maximum temperature yesterday: -13 °F (at 6:58 pm)
Minimum temperature yesterday: -20 °F (at 12:58 am)
Average temperature yesterday: -17 °F

High & Low Weather Summary for the Past Weeks

 TemperatureHumidityPressure
High1 °F (Jan 5, 7:59 pm)85% (Jan 5, 8:58 pm)30.21 "Hg (Jan 5, 8:58 pm)
Low-24 °F (Jan 9, 3:58 pm)41% (Jan 13, 5:58 am)28.75 "Hg (Jan 15, 3:58 pm)
Average-12 °F70%29.57 "Hg
* Reported Jan 5 5:08 pm — Jan 20 5:58 pm, Qaanaaq, Weather by CustomWeather, © 2017

Note: Actual official high and low records may vary slightly from our data, if they occured in-between our weather recording intervals... More about our weather records

Advertising

Qaanaaq Weather History for the Previous 24 Hours

Scroll right to see more
 ConditionsComfort  
Time TempWeatherWind HumidityBarometerVisibility
5:58 pm
Fri, Jan 20
-17 °FSunny.8 mph63%29.70 "HgN/A
4:58 pm-15 °FSunny.9 mph57%29.70 "HgN/A
3:58 pm-17 °FSunny.8 mph57%29.70 "HgN/A
2:58 pm-15 °FSunny.8 mph57%29.70 "HgN/A
1:59 pm-17 °FSunny.5 mph63%29.71 "HgN/A
12:58 pm-15 °FSunny.9 mph57%29.72 "HgN/A
11:58 am-17 °FSunny.8 mph57%29.73 "HgN/A
10:58 am-17 °FSunny.8 mph63%29.75 "HgN/A
9:58 am-20 °FSunny.7 mph62%29.76 "HgN/A
8:58 am-18 °FSunny.6 mph62%29.78 "HgN/A
7:58 am-17 °FClear.8 mph57%29.80 "HgN/A
6:58 am-19 °FClear.10 mph65%29.81 "HgN/A
5:58 am-17 °FClear.5 mph69%29.82 "HgN/A
4:58 am-20 °FClear.10 mph68%29.82 "HgN/A
3:58 am-18 °FClear.8 mph62%29.83 "HgN/A
2:58 am-20 °FSunny.5 mph68%29.83 "HgN/A
1:58 am-20 °FClear.9 mph68%29.83 "HgN/A
12:58 am-15 °FClear.9 mph69%29.83 "HgN/A
11:58 pm
Thu, Jan 19
-20 °FClear.7 mph68%29.83 "HgN/A
10:58 pm-18 °FClear.6 mph75%29.83 "HgN/A
9:58 pm-13 °FClear.6 mph69%29.83 "HgN/A
8:58 pm-20 °FSunny.6 mph75%29.82 "HgN/A
7:58 pm-17 °FSunny.6 mph69%29.80 "HgN/A
Weather by CustomWeather, © 2017

See weather overviewHow to use our weather pages